Tabellarische Ansicht des 23.10.2012


Die einzelnen Werte des Tages

Uhrzeit Temperatur Luftdruck Luftfeuchte Wind Hi-Wind Taupunkt THW Index Wind Chill Heat Index Solar- strahlung Regen

00:00

11.8 C

1022.0 hpa

95 %

1.6 km/h aus 105

6.4 km/h aus NE

11.0 C

11.9 C

11.8 C

11.9 C

0 W/m

0.00 mm

00:05

11.8 C

1022.0 hpa

95 %

3.2 km/h aus 101

6.4 km/h aus NE

11.0 C

11.9 C

11.8 C

11.9 C

0 W/m

0.00 mm

00:10

11.8 C

1022.0 hpa

95 %

1.6 km/h aus 94

6.4 km/h aus NE

11.1 C

12.0 C

11.8 C

12.0 C

0 W/m

0.00 mm

00:15

11.8 C

1021.8 hpa

95 %

4.8 km/h aus 96

9.7 km/h aus NE

11.1 C

12.0 C

11.8 C

12.0 C

0 W/m

0.00 mm

00:20

11.8 C

1021.8 hpa

95 %

4.8 km/h aus 97

9.7 km/h aus ENE

11.1 C

12.0 C

11.8 C

12.0 C

0 W/m

0.00 mm

00:25

11.8 C

1021.8 hpa

95 %

4.8 km/h aus 102

9.7 km/h aus NE

11.1 C

12.0 C

11.8 C

12.0 C

0 W/m

0.00 mm

00:30

11.8 C

1021.9 hpa

95 %

3.2 km/h aus 114

6.4 km/h aus NE

11.1 C

12.0 C

11.8 C

12.0 C

0 W/m

0.00 mm

00:35

11.8 C

1021.9 hpa

95 %

4.8 km/h aus 107

9.7 km/h aus NE

11.0 C

11.9 C

11.8 C

11.9 C

0 W/m

0.00 mm

00:40

11.8 C

1021.9 hpa

95 %

3.2 km/h aus 110

9.7 km/h aus NE

11.0 C

11.9 C

11.8 C

11.9 C

0 W/m

0.00 mm

00:45

11.8 C

1021.7 hpa

95 %

3.2 km/h aus 105

8.0 km/h aus NE

11.0 C

11.9 C

11.8 C

11.9 C

0 W/m

0.00 mm

00:50

11.8 C

1021.7 hpa

95 %

4.8 km/h aus 105

9.7 km/h aus NE

11.0 C

11.9 C

11.8 C

11.9 C

0 W/m

0.00 mm

00:55

11.8 C

1021.7 hpa

95 %

1.6 km/h aus 111

6.4 km/h aus NE

11.0 C

11.9 C

11.8 C

11.9 C

0 W/m

0.00 mm

01:00

11.8 C

1021.8 hpa

95 %

3.2 km/h aus 110

9.7 km/h aus NE

11.0 C

11.9 C

11.8 C

11.9 C

0 W/m

0.00 mm

01:05

11.7 C

1021.8 hpa

95 %

1.6 km/h aus 110

6.4 km/h aus NE

10.9 C

11.9 C

11.7 C

11.9 C

0 W/m

0.00 mm

01:10

11.7 C

1021.8 hpa

95 %

1.6 km/h aus 111

6.4 km/h aus NE

10.9 C

11.9 C

11.7 C

11.9 C

0 W/m

0.00 mm

01:15

11.7 C

1022.0 hpa

95 %

1.6 km/h aus 112

6.4 km/h aus NE

10.9 C

11.9 C

11.7 C

11.9 C

0 W/m

0.00 mm

01:20

11.7 C

1022.0 hpa

95 %

0.0 km/h aus 109

4.8 km/h aus NE

10.9 C

11.9 C

11.7 C

11.9 C

0 W/m

0.00 mm

01:25

11.8 C

1022.0 hpa

95 %

0.0 km/h aus 110

4.8 km/h aus NE

11.0 C

11.9 C

11.8 C

11.9 C

0 W/m

0.00 mm

01:30

11.8 C

1022.1 hpa

95 %

0.0 km/h aus 107

3.2 km/h aus NE

11.0 C

11.9 C

11.8 C

11.9 C

0 W/m

0.00 mm

01:35

11.8 C

1022.1 hpa

95 %

0.0 km/h aus 107

3.2 km/h aus NE

11.0 C

11.9 C

11.8 C

11.9 C

0 W/m

0.00 mm

01:40

11.8 C

1022.1 hpa

95 %

1.6 km/h aus 107

6.4 km/h aus NE

11.0 C

11.9 C

11.8 C

11.9 C

0 W/m

0.00 mm

01:45

11.8 C

1022.1 hpa

95 %

1.6 km/h aus 109

4.8 km/h aus NE

11.0 C

11.9 C

11.8 C

11.9 C

0 W/m

0.00 mm

01:50

11.8 C

1022.1 hpa

95 %

1.6 km/h aus 107

4.8 km/h aus NE

11.0 C

11.9 C

11.8 C

11.9 C

0 W/m

0.00 mm

01:55

11.8 C

1022.1 hpa

95 %

1.6 km/h aus 112

4.8 km/h aus NE

11.0 C

11.9 C

11.8 C

11.9 C

0 W/m

0.00 mm

02:00

11.8 C

1022.1 hpa

95 %

0.0 km/h aus 103

1.6 km/h aus NE

11.0 C

11.9 C

11.8 C

11.9 C

0 W/m

0.00 mm

02:05

11.8 C

1022.1 hpa

95 %

0.0 km/h aus 107

0.0 km/h aus ---

11.0 C

11.9 C

11.8 C

11.9 C

0 W/m

0.00 mm

02:10

11.8 C

1022.1 hpa

95 %

0.0 km/h aus 114

1.6 km/h aus NE

11.0 C

11.9 C

11.8 C

11.9 C

0 W/m

0.00 mm

02:15

11.8 C

1021.8 hpa

95 %

0.0 km/h aus 113

1.6 km/h aus NE

11.0 C

11.9 C

11.8 C

11.9 C

0 W/m

0.00 mm

02:20

11.8 C

1021.8 hpa

95 %

0.0 km/h aus 114

3.2 km/h aus NE

11.1 C

12.0 C

11.8 C

12.0 C

0 W/m

0.00 mm

02:25

11.8 C

1021.8 hpa

95 %

0.0 km/h aus 109

0.0 km/h aus ---

11.1 C

12.0 C

11.8 C

12.0 C

0 W/m

0.00 mm

02:30

11.8 C

1021.8 hpa

95 %

0.0 km/h aus 113

4.8 km/h aus NE

11.1 C

12.0 C

11.8 C

12.0 C

0 W/m

0.00 mm

02:35

11.8 C

1021.8 hpa

95 %

0.0 km/h aus 105

3.2 km/h aus NE

11.1 C

12.0 C

11.8 C

12.0 C

0 W/m

0.00 mm

02:40

11.8 C

1021.8 hpa

95 %

0.0 km/h aus 113

3.2 km/h aus NE

11.1 C

12.0 C

11.8 C

12.0 C

0 W/m

0.00 mm

02:45

11.8 C

1022.0 hpa

95 %

3.2 km/h aus 101

9.7 km/h aus ENE

11.1 C

12.0 C

11.8 C

12.0 C

0 W/m

0.00 mm

02:50

11.8 C

1022.0 hpa

95 %

3.2 km/h aus 105

11.3 km/h aus ESE

11.0 C

11.9 C

11.8 C

11.9 C

0 W/m

0.00 mm

02:55

11.8 C

1022.0 hpa

95 %

6.4 km/h aus 109

14.5 km/h aus E

11.0 C

11.6 C

11.4 C

11.9 C

0 W/m

0.00 mm

03:00

11.7 C

1022.1 hpa

95 %

3.2 km/h aus 105

8.0 km/h aus E

10.9 C

11.9 C

11.7 C

11.9 C

0 W/m

0.00 mm

03:05

11.7 C

1022.1 hpa

95 %

4.8 km/h aus 107

9.7 km/h aus E

10.9 C

11.8 C

11.7 C

11.8 C

0 W/m

0.00 mm

03:10

11.6 C

1022.1 hpa

95 %

8.0 km/h aus 107

17.7 km/h aus E

10.8 C

11.1 C

10.9 C

11.8 C

0 W/m

0.00 mm

03:15

11.6 C

1022.0 hpa

95 %

4.8 km/h aus 101

9.7 km/h aus ESE

10.8 C

11.7 C

11.6 C

11.7 C

0 W/m

0.00 mm

03:20

11.6 C

1022.0 hpa

95 %

6.4 km/h aus 110

11.3 km/h aus ESE

10.8 C

11.3 C

11.2 C

11.7 C

0 W/m

0.00 mm

03:25

11.5 C

1022.0 hpa

95 %

4.8 km/h aus 111

8.0 km/h aus ESE

10.7 C

11.7 C

11.5 C

11.7 C

0 W/m

0.00 mm

03:30

11.5 C

1021.9 hpa

95 %

4.8 km/h aus 108

8.0 km/h aus ESE

10.7 C

11.7 C

11.5 C

11.7 C

0 W/m

0.00 mm

03:35

11.4 C

1021.9 hpa

95 %

3.2 km/h aus 108

8.0 km/h aus ESE

10.7 C

11.6 C

11.4 C

11.6 C

0 W/m

0.00 mm

03:40

11.4 C

1021.9 hpa

95 %

1.6 km/h aus 113

9.7 km/h aus ESE

10.7 C

11.6 C

11.4 C

11.6 C

0 W/m

0.00 mm

03:45

11.4 C

1022.0 hpa

95 %

3.2 km/h aus 105

6.4 km/h aus ESE

10.7 C

11.6 C

11.4 C

11.6 C

0 W/m

0.00 mm

03:50

11.4 C

1022.0 hpa

95 %

3.2 km/h aus 108

6.4 km/h aus ESE

10.7 C

11.6 C

11.4 C

11.6 C

0 W/m

0.00 mm

03:55

11.4 C

1022.0 hpa

95 %

4.8 km/h aus 103

9.7 km/h aus ESE

10.7 C

11.6 C

11.4 C

11.6 C

0 W/m

0.00 mm

04:00

11.4 C

1021.9 hpa

95 %

1.6 km/h aus 110

6.4 km/h aus ESE

10.7 C

11.6 C

11.4 C

11.6 C

0 W/m

0.00 mm

04:05

11.4 C

1021.9 hpa

95 %

1.6 km/h aus 109

4.8 km/h aus ESE

10.7 C

11.6 C

11.4 C

11.6 C

0 W/m

0.00 mm

04:10

11.4 C

1021.9 hpa

95 %

1.6 km/h aus 113

4.8 km/h aus ESE

10.7 C

11.6 C

11.4 C

11.6 C

0 W/m

0.00 mm

04:15

11.4 C

1021.9 hpa

95 %

3.2 km/h aus 114

8.0 km/h aus ESE

10.7 C

11.6 C

11.4 C

11.6 C

0 W/m

0.00 mm

04:20

11.4 C

1021.9 hpa

95 %

3.2 km/h aus 108

8.0 km/h aus ESE

10.7 C

11.6 C

11.4 C

11.6 C

0 W/m

0.00 mm

04:25

11.4 C

1021.9 hpa

95 %

4.8 km/h aus 110

8.0 km/h aus ESE

10.6 C

11.6 C

11.4 C

11.6 C

0 W/m

0.00 mm

04:30

11.4 C

1021.9 hpa

95 %

3.2 km/h aus 111

9.7 km/h aus ESE

10.6 C

11.6 C

11.4 C

11.6 C

0 W/m

0.00 mm

04:35

11.4 C

1021.9 hpa

95 %

3.2 km/h aus 112

6.4 km/h aus ESE

10.6 C

11.6 C

11.4 C

11.6 C

0 W/m

0.00 mm

04:40

11.4 C

1021.9 hpa

95 %

3.2 km/h aus 106

8.0 km/h aus ESE

10.6 C

11.6 C

11.4 C

11.6 C

0 W/m

0.00 mm

04:45

11.3 C

1021.8 hpa

95 %

3.2 km/h aus 111

9.7 km/h aus ESE

10.6 C

11.5 C

11.3 C

11.5 C

0 W/m

0.00 mm

04:50

11.3 C

1021.8 hpa

95 %

3.2 km/h aus 109

9.7 km/h aus ESE

10.6 C

11.5 C

11.3 C

11.5 C

0 W/m

0.00 mm

04:55

11.3 C

1021.8 hpa

95 %

6.4 km/h aus 113

12.9 km/h aus ESE

10.5 C

11.0 C

10.8 C

11.4 C

0 W/m

0.00 mm

05:00

11.3 C

1021.7 hpa

95 %

4.8 km/h aus 111

11.3 km/h aus ESE

10.5 C

11.4 C

11.2 C

11.4 C

0 W/m

0.00 mm

05:05

11.2 C

1021.7 hpa

95 %

4.8 km/h aus 104

8.0 km/h aus ESE

10.5 C

11.3 C

11.2 C

11.4 C

0 W/m

0.00 mm

05:10

11.2 C

1021.7 hpa

95 %

6.4 km/h aus 109

14.5 km/h aus ESE

10.4 C

10.9 C

10.7 C

11.3 C

0 W/m

0.00 mm

05:15

11.1 C

1022.0 hpa

95 %

4.8 km/h aus 102

11.3 km/h aus ESE

10.3 C

11.2 C

11.1 C

11.3 C

0 W/m

0.00 mm

05:20

11.1 C

1022.0 hpa

95 %

3.2 km/h aus 99

8.0 km/h aus ESE

10.3 C

11.2 C

11.1 C

11.2 C

0 W/m

0.00 mm

05:25

11.1 C

1022.0 hpa

95 %

3.2 km/h aus 109

9.7 km/h aus E

10.3 C

11.2 C

11.1 C

11.2 C

0 W/m

0.00 mm

05:30

11.0 C

1022.2 hpa

95 %

3.2 km/h aus 108

6.4 km/h aus E

10.2 C

11.2 C

11.0 C

11.2 C

0 W/m

0.00 mm

05:35

11.0 C

1022.2 hpa

95 %

4.8 km/h aus 111

9.7 km/h aus E

10.2 C

11.1 C

10.9 C

11.2 C

0 W/m

0.00 mm

05:40

10.9 C

1022.2 hpa

95 %

3.2 km/h aus 109

9.7 km/h aus E

10.2 C

11.1 C

10.9 C

11.1 C

0 W/m

0.00 mm

05:45

10.9 C

1022.2 hpa

95 %

1.6 km/h aus 112

4.8 km/h aus E

10.2 C

11.1 C

10.9 C

11.1 C

0 W/m

0.00 mm

05:50

10.9 C

1022.2 hpa

95 %

3.2 km/h aus 111

8.0 km/h aus E

10.2 C

11.1 C

10.9 C

11.1 C

0 W/m

0.00 mm

05:55

10.9 C

1022.2 hpa

95 %

3.2 km/h aus 113

6.4 km/h aus ENE

10.2 C

11.1 C

10.9 C

11.1 C

0 W/m

0.00 mm

06:00

10.9 C

1022.2 hpa

95 %

1.6 km/h aus 108

6.4 km/h aus ENE

10.2 C

11.1 C

10.9 C

11.1 C

0 W/m

0.00 mm

06:05

10.9 C

1022.2 hpa

95 %

0.0 km/h aus 105

4.8 km/h aus ENE

10.2 C

11.1 C

10.9 C

11.1 C

0 W/m

0.00 mm

06:10

10.9 C

1022.2 hpa

95 %

0.0 km/h aus 112

1.6 km/h aus ENE

10.2 C

11.1 C

10.9 C

11.1 C

0 W/m

0.00 mm

06:15

10.9 C

1022.3 hpa

95 %

0.0 km/h aus 105

3.2 km/h aus ENE

10.2 C

11.1 C

10.9 C

11.1 C

0 W/m

0.00 mm

06:20

10.9 C

1022.3 hpa

95 %

1.6 km/h aus 111

6.4 km/h aus ENE

10.2 C

11.1 C

10.9 C

11.1 C

0 W/m

0.00 mm

06:25

10.9 C

1022.3 hpa

95 %

1.6 km/h aus 113

6.4 km/h aus ENE

10.2 C

11.1 C

10.9 C

11.1 C

0 W/m

0.00 mm

06:30

10.9 C

1022.4 hpa

95 %

1.6 km/h aus 110

6.4 km/h aus ENE

10.2 C

11.1 C

10.9 C

11.1 C

0 W/m

0.00 mm

06:35

10.9 C

1022.4 hpa

95 %

1.6 km/h aus 113

6.4 km/h aus ENE

10.2 C

11.1 C

10.9 C

11.1 C

0 W/m

0.00 mm

06:40

10.9 C

1022.4 hpa

94 %

1.6 km/h aus 103

6.4 km/h aus ENE

10.0 C

11.1 C

10.9 C

11.1 C

0 W/m

0.00 mm

06:45

10.9 C

1022.2 hpa

94 %

1.6 km/h aus 110

6.4 km/h aus ENE

10.0 C

11.1 C

10.9 C

11.1 C

0 W/m

0.00 mm

06:50

10.9 C

1022.2 hpa

94 %

1.6 km/h aus 110

6.4 km/h aus ENE

10.0 C

11.1 C

10.9 C

11.1 C

0 W/m

0.00 mm

06:55

10.8 C

1022.2 hpa

94 %

3.2 km/h aus 106

6.4 km/h aus ENE

9.9 C

11.0 C

10.8 C

11.0 C

0 W/m

0.00 mm

07:00

10.8 C

1022.2 hpa

94 %

4.8 km/h aus 108

8.0 km/h aus ENE

9.9 C

10.9 C

10.8 C

11.0 C

0 W/m

0.00 mm

07:05

10.8 C

1022.2 hpa

94 %

1.6 km/h aus 108

6.4 km/h aus ENE

9.9 C

11.0 C

10.8 C

11.0 C

0 W/m

0.00 mm

07:10

10.8 C

1022.2 hpa

94 %

3.2 km/h aus 110

9.7 km/h aus ENE

9.9 C

11.0 C

10.8 C

11.0 C

0 W/m

0.00 mm

07:15

10.8 C

1022.2 hpa

94 %

1.6 km/h aus 113

6.4 km/h aus ENE

9.9 C

11.0 C

10.8 C

11.0 C

0 W/m

0.00 mm

07:20

10.8 C

1022.2 hpa

94 %

1.6 km/h aus 110

4.8 km/h aus ENE

9.9 C

11.0 C

10.8 C

11.0 C

0 W/m

0.00 mm

07:25

10.8 C

1022.2 hpa

94 %

3.2 km/h aus 109

6.4 km/h aus ENE

9.9 C

10.9 C

10.8 C

10.9 C

0 W/m

0.00 mm

07:30

10.8 C

1022.4 hpa

94 %

1.6 km/h aus 111

6.4 km/h aus ENE

9.9 C

10.9 C

10.8 C

10.9 C

0 W/m

0.00 mm

07:35

10.7 C

1022.4 hpa

94 %

3.2 km/h aus 111

8.0 km/h aus ENE

9.8 C

10.9 C

10.7 C

10.9 C

0 W/m

0.00 mm

07:40

10.7 C

1022.4 hpa

94 %

3.2 km/h aus 107

9.7 km/h aus ENE

9.8 C

10.9 C

10.7 C

10.9 C

0 W/m

0.00 mm

07:45

10.7 C

1022.8 hpa

94 %

3.2 km/h aus 104

8.0 km/h aus ENE

9.8 C

10.9 C

10.7 C

10.9 C

0 W/m

0.00 mm

07:50

10.7 C

1022.8 hpa

94 %

4.8 km/h aus 108

9.7 km/h aus ENE

9.7 C

10.7 C

10.6 C

10.8 C

0 W/m

0.00 mm

07:55

10.7 C

1022.8 hpa

94 %

8.0 km/h aus 107

14.5 km/h aus E

9.7 C

9.9 C

9.8 C

10.8 C

0 W/m

0.00 mm

08:00

10.7 C

1022.8 hpa

94 %

4.8 km/h aus 103

9.7 km/h aus E

9.7 C

10.7 C

10.6 C

10.8 C

0 W/m

0.00 mm

08:05

10.7 C

1022.8 hpa

94 %

4.8 km/h aus 105

11.3 km/h aus E

9.7 C

10.7 C

10.6 C

10.8 C

0 W/m

0.00 mm

08:10

10.6 C

1022.8 hpa

94 %

4.8 km/h aus 108

9.7 km/h aus E

9.7 C

10.7 C

10.5 C

10.8 C

0 W/m

0.00 mm

08:15

10.7 C

1022.8 hpa

94 %

4.8 km/h aus 112

9.7 km/h aus E

9.7 C

10.7 C

10.6 C

10.8 C

0 W/m

0.00 mm

08:20

10.6 C

1022.8 hpa

94 %

1.6 km/h aus 108

8.0 km/h aus E

9.7 C

10.8 C

10.6 C

10.8 C

0 W/m

0.00 mm

08:25

10.7 C

1022.8 hpa

94 %

1.6 km/h aus 111

6.4 km/h aus E

9.7 C

10.8 C

10.7 C

10.8 C

0 W/m

0.00 mm

08:30

10.7 C

1022.8 hpa

94 %

1.6 km/h aus 106

8.0 km/h aus E

9.7 C

10.8 C

10.7 C

10.8 C

0 W/m

0.00 mm

08:35

10.7 C

1022.8 hpa

94 %

0.0 km/h aus 107

4.8 km/h aus E

9.7 C

10.8 C

10.7 C

10.8 C

0 W/m

0.00 mm

08:40

10.7 C

1022.8 hpa

94 %

3.2 km/h aus 111

6.4 km/h aus E

9.7 C

10.8 C

10.7 C

10.8 C

0 W/m

0.00 mm

08:45

10.7 C

1023.1 hpa

94 %

1.6 km/h aus 112

6.4 km/h aus E

9.7 C

10.8 C

10.7 C

10.8 C

0 W/m

0.00 mm

08:50

10.7 C

1023.1 hpa

94 %

3.2 km/h aus 109

8.0 km/h aus E

9.8 C

10.9 C

10.7 C

10.9 C

0 W/m

0.00 mm

08:55

10.7 C

1023.1 hpa

94 %

3.2 km/h aus 107

11.3 km/h aus E

9.8 C

10.9 C

10.7 C

10.9 C

0 W/m

0.00 mm

09:00

10.7 C

1023.3 hpa

94 %

3.2 km/h aus 108

9.7 km/h aus E

9.8 C

10.9 C

10.7 C

10.9 C

0 W/m

0.00 mm

09:05

10.7 C

1023.3 hpa

94 %

4.8 km/h aus 109

11.3 km/h aus E

9.8 C

10.8 C

10.6 C

10.9 C

0 W/m

0.00 mm

09:10

10.7 C

1023.3 hpa

94 %

4.8 km/h aus 107

11.3 km/h aus ESE

9.8 C

10.8 C

10.6 C

10.9 C

0 W/m

0.00 mm

09:15

10.7 C

1023.3 hpa

94 %

4.8 km/h aus 111

9.7 km/h aus ESE

9.8 C

10.8 C

10.6 C

10.9 C

0 W/m

0.00 mm

09:20

10.8 C

1023.3 hpa

94 %

1.6 km/h aus 102

6.4 km/h aus ESE

9.9 C

10.9 C

10.8 C

10.9 C

0 W/m

0.00 mm

09:25

10.8 C

1023.3 hpa

93 %

3.2 km/h aus 106

9.7 km/h aus ESE

9.7 C

10.9 C

10.8 C

10.9 C

0 W/m

0.00 mm

09:30

10.8 C

1023.5 hpa

94 %

0.0 km/h aus 110

1.6 km/h aus ESE

9.9 C

10.9 C

10.8 C

10.9 C

0 W/m

0.00 mm

09:35

10.8 C

1023.5 hpa

94 %

0.0 km/h aus 112

3.2 km/h aus ESE

9.9 C

10.9 C

10.8 C

10.9 C

0 W/m

0.00 mm

09:40

10.8 C

1023.5 hpa

94 %

4.8 km/h aus 113

8.0 km/h aus ESE

9.9 C

10.9 C

10.8 C

11.0 C

0 W/m

0.00 mm

09:45

10.8 C

1023.4 hpa

93 %

4.8 km/h aus 113

9.7 km/h aus E

9.7 C

10.9 C

10.8 C

11.0 C

0 W/m

0.00 mm

09:50

10.8 C

1023.4 hpa

93 %

3.2 km/h aus 106

8.0 km/h aus ENE

9.7 C

11.0 C

10.8 C

11.0 C

0 W/m

0.00 mm

09:55

10.8 C

1023.4 hpa

93 %

1.6 km/h aus 112

9.7 km/h aus ENE

9.7 C

11.0 C

10.8 C

11.0 C

0 W/m

0.00 mm

10:00

10.9 C

1023.3 hpa

93 %

3.2 km/h aus 107

8.0 km/h aus ENE

9.8 C

11.1 C

10.9 C

11.1 C

0 W/m

0.00 mm

10:05

10.9 C

1023.3 hpa

93 %

3.2 km/h aus 105

8.0 km/h aus ENE

9.9 C

11.1 C

10.9 C

11.1 C

0 W/m

0.00 mm

10:10

11.0 C

1023.3 hpa

93 %

4.8 km/h aus 107

9.7 km/h aus E

9.9 C

11.1 C

10.9 C

11.2 C

0 W/m

0.00 mm

10:15

11.1 C

1023.3 hpa

93 %

3.2 km/h aus 104

8.0 km/h aus E

10.0 C

11.2 C

11.1 C

11.2 C

0 W/m

0.00 mm

10:20

11.1 C

1023.3 hpa

93 %

3.2 km/h aus 107

6.4 km/h aus E

10.0 C

11.2 C

11.1 C

11.2 C

0 W/m

0.00 mm

10:25

11.1 C

1023.3 hpa

93 %

3.2 km/h aus 110

8.0 km/h aus E

10.0 C

11.3 C

11.1 C

11.3 C

0 W/m

0.00 mm

10:30

11.2 C

1023.4 hpa

93 %

1.6 km/h aus 108

8.0 km/h aus E

10.1 C

11.3 C

11.2 C

11.3 C

0 W/m

0.00 mm

10:35

11.2 C

1023.4 hpa

93 %

1.6 km/h aus 105

4.8 km/h aus E

10.1 C

11.4 C

11.2 C

11.4 C

0 W/m

0.00 mm

10:40

11.3 C

1023.4 hpa

93 %

4.8 km/h aus 108

8.0 km/h aus E

10.2 C

11.3 C

11.2 C

11.4 C

0 W/m

0.00 mm

10:45

11.3 C

1023.4 hpa

93 %

4.8 km/h aus 108

9.7 km/h aus E

10.2 C

11.3 C

11.2 C

11.4 C

0 W/m

0.00 mm

10:50

11.3 C

1023.4 hpa

93 %

6.4 km/h aus 104

9.7 km/h aus E

10.2 C

11.0 C

10.9 C

11.4 C

0 W/m

0.00 mm

10:55

11.3 C

1023.4 hpa

93 %

3.2 km/h aus 112

9.7 km/h aus E

10.2 C

11.4 C

11.3 C

11.4 C

0 W/m

0.00 mm

11:00

11.3 C

1023.4 hpa

93 %

3.2 km/h aus 113

8.0 km/h aus E

10.2 C

11.4 C

11.3 C

11.4 C

0 W/m

0.00 mm

11:05

11.3 C

1023.4 hpa

92 %

3.2 km/h aus 109

8.0 km/h aus E

10.1 C

11.4 C

11.3 C

11.4 C

0 W/m

0.00 mm

11:10

11.4 C

1023.4 hpa

92 %

3.2 km/h aus 116

8.0 km/h aus E

10.1 C

11.5 C

11.4 C

11.5 C

0 W/m

0.00 mm

11:15

11.4 C

1023.4 hpa

92 %

1.6 km/h aus 106

6.4 km/h aus E

10.2 C

11.6 C

11.4 C

11.6 C

0 W/m

0.00 mm

11:20

11.4 C

1023.4 hpa

92 %

4.8 km/h aus 110

9.7 km/h aus E

10.2 C

11.6 C

11.4 C

11.6 C

0 W/m

0.00 mm

11:25

11.5 C

1023.4 hpa

92 %

3.2 km/h aus 105

8.0 km/h aus ESE

10.2 C

11.6 C

11.5 C

11.6 C

0 W/m

0.00 mm

11:30

11.5 C

1023.5 hpa

92 %

3.2 km/h aus 106

8.0 km/h aus ESE

10.2 C

11.6 C

11.5 C

11.6 C

0 W/m

0.00 mm

11:35

11.6 C

1023.5 hpa

92 %

6.4 km/h aus 110

9.7 km/h aus NE

10.3 C

11.3 C

11.2 C

11.7 C

0 W/m

0.00 mm

11:40

11.6 C

1023.5 hpa

92 %

4.8 km/h aus 111

9.7 km/h aus NNE

10.3 C

11.7 C

11.6 C

11.7 C

0 W/m

0.00 mm

11:45

11.6 C

1023.7 hpa

91 %

3.2 km/h aus 106

11.3 km/h aus NE

10.2 C

11.7 C

11.6 C

11.7 C

0 W/m

0.00 mm

11:50

11.7 C

1023.7 hpa

91 %

1.6 km/h aus 103

6.4 km/h aus NE

10.2 C

11.7 C

11.7 C

11.7 C

0 W/m

0.00 mm

11:55

11.7 C

1023.7 hpa

91 %

3.2 km/h aus 99

9.7 km/h aus NE

10.2 C

11.7 C

11.7 C

11.7 C

0 W/m

0.00 mm

12:00

11.7 C

1023.7 hpa

91 %

3.2 km/h aus 107

11.3 km/h aus ENE

10.3 C

11.8 C

11.7 C

11.8 C

0 W/m

0.00 mm

12:05

11.7 C

1023.7 hpa

91 %

3.2 km/h aus 112

6.4 km/h aus ENE

10.3 C

11.8 C

11.7 C

11.8 C

0 W/m

0.00 mm

12:10

11.8 C

1023.7 hpa

91 %

3.2 km/h aus 113

8.0 km/h aus ENE

10.4 C

11.8 C

11.8 C

11.8 C

0 W/m

0.00 mm

12:15

11.8 C

1023.6 hpa

91 %

1.6 km/h aus 110

8.0 km/h aus ENE

10.4 C

11.9 C

11.8 C

11.9 C

0 W/m

0.00 mm

12:20

11.9 C

1023.6 hpa

90 %

3.2 km/h aus 108

14.5 km/h aus NNE

10.3 C

11.9 C

11.9 C

11.9 C

0 W/m

0.00 mm

12:25

11.9 C

1023.6 hpa

90 %

8.0 km/h aus 105

16.1 km/h aus NE

10.3 C

11.3 C

11.2 C

11.9 C

0 W/m

0.00 mm

12:30

11.9 C

1023.4 hpa

90 %

6.4 km/h aus 109

16.1 km/h aus NE

10.4 C

11.7 C

11.6 C

12.0 C

0 W/m

0.00 mm

12:35

11.9 C

1023.4 hpa

90 %

6.4 km/h aus 113

14.5 km/h aus NE

10.4 C

11.7 C

11.6 C

12.0 C

0 W/m

0.00 mm

12:40

11.9 C

1023.4 hpa

90 %

6.4 km/h aus 114

14.5 km/h aus NE

10.4 C

11.7 C

11.6 C

12.0 C

0 W/m

0.00 mm

12:45

12.0 C

1023.3 hpa

89 %

4.8 km/h aus 104

9.7 km/h aus NE

10.2 C

12.1 C

12.0 C

12.1 C

0 W/m

0.00 mm

12:50

12.0 C

1023.3 hpa

89 %

6.4 km/h aus 109

16.1 km/h aus NE

10.2 C

11.7 C

11.7 C

12.1 C

0 W/m

0.00 mm

12:55

12.1 C

1023.3 hpa

89 %

3.2 km/h aus 111

16.1 km/h aus ESE

10.3 C

12.1 C

12.1 C

12.1 C

0 W/m

0.00 mm

13:00

12.1 C

1023.3 hpa

89 %

4.8 km/h aus 102

9.7 km/h aus ESE

10.4 C

12.2 C

12.1 C

12.2 C

0 W/m

0.00 mm

13:05

12.2 C

1023.3 hpa

89 %

6.4 km/h aus 102

16.1 km/h aus NE

10.4 C

11.9 C

11.9 C

12.2 C

0 W/m

0.00 mm

13:10

12.2 C

1023.3 hpa

89 %

4.8 km/h aus 110

11.3 km/h aus NE

10.4 C

12.2 C

12.2 C

12.2 C

0 W/m

0.00 mm

13:15

12.2 C

1023.3 hpa

88 %

6.4 km/h aus 110

16.1 km/h aus E

10.2 C

11.9 C

11.9 C

12.2 C

0 W/m

0.00 mm

13:20

12.2 C

1023.3 hpa

88 %

4.8 km/h aus 109

9.7 km/h aus E

10.2 C

12.2 C

12.2 C

12.2 C

0 W/m

0.00 mm

13:25

12.2 C

1023.3 hpa

87 %

4.8 km/h aus 104

11.3 km/h aus NE

10.1 C

12.2 C

12.2 C

12.2 C

0 W/m

0.00 mm

13:30

12.2 C

1023.2 hpa

87 %

6.4 km/h aus 107

11.3 km/h aus NNE

10.1 C

11.9 C

11.9 C

12.2 C

0 W/m

0.00 mm

13:35

12.3 C

1023.2 hpa

87 %

6.4 km/h aus 105

11.3 km/h aus E

10.2 C

12.0 C

12.0 C

12.3 C

0 W/m

0.00 mm

13:40

12.4 C

1023.2 hpa

87 %

4.8 km/h aus 105

14.5 km/h aus ENE

10.3 C

12.4 C

12.4 C

12.4 C

0 W/m

0.00 mm

13:45

12.5 C

1023.2 hpa

86 %

4.8 km/h aus 110

11.3 km/h aus E

10.2 C

12.4 C

12.5 C

12.4 C

0 W/m

0.00 mm

13:50

12.6 C

1023.2 hpa

86 %

3.2 km/h aus 106

14.5 km/h aus ENE

10.3 C

12.5 C

12.6 C

12.5 C

0 W/m

0.00 mm

13:55

12.6 C

1023.2 hpa

86 %

4.8 km/h aus 111

11.3 km/h aus ENE

10.3 C

12.5 C

12.6 C

12.5 C

0 W/m

0.00 mm

14:00

12.6 C

1023.0 hpa

86 %

6.4 km/h aus 109

14.5 km/h aus ENE

10.3 C

12.3 C

12.3 C

12.5 C

0 W/m

0.00 mm

14:05

12.6 C

1023.0 hpa

85 %

3.2 km/h aus 98

11.3 km/h aus ENE

10.2 C

12.6 C

12.6 C

12.6 C

0 W/m

0.00 mm

14:10

12.7 C

1023.0 hpa

85 %

6.4 km/h aus 109

17.7 km/h aus ESE

10.2 C

12.4 C

12.4 C

12.6 C

0 W/m

0.00 mm

14:15

12.7 C

1022.9 hpa

85 %

3.2 km/h aus 107

11.3 km/h aus ESE

10.2 C

12.6 C

12.7 C

12.6 C

0 W/m

0.00 mm

14:20

12.7 C

1022.9 hpa

85 %

6.4 km/h aus 111

14.5 km/h aus ESE

10.3 C

12.4 C

12.5 C

12.7 C

0 W/m

0.00 mm

14:25

12.7 C

1022.9 hpa

85 %

6.4 km/h aus 111

16.1 km/h aus NE

10.2 C

12.4 C

12.4 C

12.6 C

0 W/m

0.00 mm

14:30

12.7 C

1022.9 hpa

85 %

3.2 km/h aus 107

9.7 km/h aus ENE

10.2 C

12.6 C

12.7 C

12.6 C

0 W/m

0.00 mm

14:35

12.6 C

1022.9 hpa

85 %

6.4 km/h aus 106

11.3 km/h aus ENE

10.2 C

12.3 C

12.4 C

12.6 C

0 W/m

0.00 mm

14:40

12.7 C

1022.9 hpa

85 %

4.8 km/h aus 106

11.3 km/h aus NE

10.3 C

12.7 C

12.7 C

12.7 C

0 W/m

0.00 mm

14:45

12.8 C

1022.8 hpa

85 %

4.8 km/h aus 105

9.7 km/h aus ENE

10.3 C

12.7 C

12.8 C

12.7 C

0 W/m

0.00 mm

14:50

12.7 C

1022.8 hpa

85 %

3.2 km/h aus 107

8.0 km/h aus ENE

10.2 C

12.6 C

12.7 C

12.6 C

0 W/m

0.00 mm

14:55

12.8 C

1022.8 hpa

85 %

3.2 km/h aus 108

9.7 km/h aus NE

10.3 C

12.7 C

12.8 C

12.7 C

0 W/m

0.00 mm

15:00

12.7 C

1022.8 hpa

85 %

6.4 km/h aus 108

9.7 km/h aus NE

10.3 C

12.4 C

12.5 C

12.7 C

0 W/m

0.00 mm

15:05

12.7 C

1022.8 hpa

85 %

6.4 km/h aus 105

11.3 km/h aus ENE

10.3 C

12.4 C

12.5 C

12.7 C

0 W/m

0.00 mm

15:10

12.8 C

1022.8 hpa

85 %

3.2 km/h aus 111

8.0 km/h aus ESE

10.4 C

12.8 C

12.8 C

12.8 C

0 W/m

0.00 mm

15:15

12.9 C

1022.7 hpa

85 %

1.6 km/h aus 112

6.4 km/h aus E

10.4 C

12.8 C

12.9 C

12.8 C

0 W/m

0.00 mm

15:20

12.8 C

1022.7 hpa

85 %

6.4 km/h aus 108

14.5 km/h aus ENE

10.3 C

12.5 C

12.6 C

12.7 C

0 W/m

0.00 mm

15:25

12.8 C

1022.7 hpa

85 %

6.4 km/h aus 109

16.1 km/h aus NE

10.4 C

12.6 C

12.6 C

12.8 C

0 W/m

0.00 mm

15:30

12.9 C

1022.5 hpa

85 %

3.2 km/h aus 104

8.0 km/h aus ENE

10.4 C

12.8 C

12.9 C

12.8 C

0 W/m

0.00 mm

15:35

12.9 C

1022.5 hpa

85 %

4.8 km/h aus 102

19.3 km/h aus NE

10.4 C

12.8 C

12.9 C

12.8 C

0 W/m

0.00 mm

15:40

12.8 C

1022.5 hpa

85 %

9.7 km/h aus 107

19.3 km/h aus ENE

10.3 C

11.9 C

12.0 C

12.7 C

0 W/m

0.00 mm

15:45

12.7 C

1022.2 hpa

85 %

6.4 km/h aus 108

14.5 km/h aus ENE

10.3 C

12.4 C

12.5 C

12.7 C

0 W/m

0.00 mm

15:50

12.9 C

1022.2 hpa

86 %

6.4 km/h aus 111

11.3 km/h aus ESE

10.7 C

12.7 C

12.8 C

12.9 C

0 W/m

0.00 mm

15:55

12.9 C

1022.2 hpa

85 %

8.0 km/h aus 109

16.1 km/h aus NE

10.5 C

12.4 C

12.5 C

12.9 C

0 W/m

0.00 mm

16:00

12.9 C

1022.5 hpa

85 %

3.2 km/h aus 112

9.7 km/h aus NE

10.5 C

12.9 C

12.9 C

12.9 C

0 W/m

0.00 mm

16:05

12.9 C

1022.5 hpa

85 %

4.8 km/h aus 107

9.7 km/h aus NNE

10.5 C

12.9 C

12.9 C

12.9 C

0 W/m

0.00 mm

16:10

12.9 C

1022.5 hpa

85 %

4.8 km/h aus 105

12.9 km/h aus N

10.4 C

12.8 C

12.9 C

12.8 C

0 W/m

0.00 mm

16:15

12.8 C

1022.7 hpa

85 %

4.8 km/h aus 104

9.7 km/h aus NNE

10.4 C

12.8 C

12.8 C

12.8 C

0 W/m

0.00 mm

16:20

12.8 C

1022.7 hpa

85 %

3.2 km/h aus 111

9.7 km/h aus NNE

10.3 C

12.7 C

12.8 C

12.7 C

0 W/m

0.00 mm

16:25

12.8 C

1022.7 hpa

85 %

1.6 km/h aus 108

4.8 km/h aus ENE

10.3 C

12.7 C

12.8 C

12.7 C

0 W/m

0.00 mm

16:30

12.7 C

1022.5 hpa

85 %

4.8 km/h aus 108

11.3 km/h aus NNE

10.3 C

12.7 C

12.7 C

12.7 C

0 W/m

0.00 mm

16:35

12.7 C

1022.5 hpa

85 %

4.8 km/h aus 113

11.3 km/h aus ENE

10.3 C

12.7 C

12.7 C

12.7 C

0 W/m

0.00 mm

16:40

12.7 C

1022.5 hpa

85 %

4.8 km/h aus 113

9.7 km/h aus ENE

10.3 C

12.7 C

12.7 C

12.7 C

0 W/m

0.00 mm

16:45

12.7 C

1022.4 hpa

85 %

3.2 km/h aus 104

8.0 km/h aus NNE

10.3 C

12.7 C

12.7 C

12.7 C

0 W/m

0.00 mm

16:50

12.7 C

1022.4 hpa

85 %

3.2 km/h aus 106

8.0 km/h aus NNE

10.2 C

12.6 C

12.7 C

12.6 C

0 W/m

0.00 mm

16:55

12.7 C

1022.4 hpa

85 %

3.2 km/h aus 105

9.7 km/h aus NNE

10.2 C

12.6 C

12.7 C

12.6 C

0 W/m

0.00 mm

17:00

12.6 C

1022.6 hpa

85 %

4.8 km/h aus 110

14.5 km/h aus NE

10.2 C

12.6 C

12.6 C

12.6 C

0 W/m

0.00 mm

17:05

12.6 C

1022.6 hpa

85 %

1.6 km/h aus 107

4.8 km/h aus NE

10.1 C

12.5 C

12.6 C

12.5 C

0 W/m

0.00 mm

17:10

12.6 C

1022.6 hpa

85 %

1.6 km/h aus 107

8.0 km/h aus NE

10.1 C

12.5 C

12.6 C

12.5 C

0 W/m

0.00 mm

17:15

12.6 C

1022.6 hpa

86 %

3.2 km/h aus 109

8.0 km/h aus NE

10.3 C

12.5 C

12.6 C

12.5 C

0 W/m

0.00 mm

17:20

12.6 C

1022.6 hpa

86 %

3.2 km/h aus 105

6.4 km/h aus NE

10.3 C

12.5 C

12.6 C

12.5 C

0 W/m

0.00 mm

17:25

12.6 C

1022.6 hpa

86 %

1.6 km/h aus 101

6.4 km/h aus NE

10.3 C

12.5 C

12.6 C

12.5 C

0 W/m

0.00 mm

17:30

12.5 C

1022.3 hpa

86 %

3.2 km/h aus 103

6.4 km/h aus NE

10.2 C

12.4 C

12.5 C

12.4 C

0 W/m

0.00 mm

17:35

12.5 C

1022.3 hpa

86 %

4.8 km/h aus 106

8.0 km/h aus NE

10.2 C

12.4 C

12.5 C

12.4 C

0 W/m

0.00 mm

17:40

12.4 C

1022.3 hpa

86 %

4.8 km/h aus 109

11.3 km/h aus N

10.2 C

12.4 C

12.4 C

12.4 C

0 W/m

0.00 mm

17:45

12.4 C

1022.7 hpa

86 %

3.2 km/h aus 113

9.7 km/h aus NNE

10.2 C

12.4 C

12.4 C

12.4 C

0 W/m

0.00 mm

17:50

12.4 C

1022.7 hpa

86 %

4.8 km/h aus 102

9.7 km/h aus NNE

10.1 C

12.3 C

12.4 C

12.3 C

0 W/m

0.00 mm

17:55

12.3 C

1022.7 hpa

86 %

4.8 km/h aus 108

11.3 km/h aus NE

10.1 C

12.3 C

12.3 C

12.3 C

0 W/m

0.00 mm

18:00

12.3 C

1022.7 hpa

87 %

4.8 km/h aus 108

9.7 km/h aus NNE

10.2 C

12.3 C

12.3 C

12.3 C

0 W/m

0.00 mm

18:05

12.2 C

1022.7 hpa

87 %

1.6 km/h aus 114

6.4 km/h aus NNE

10.1 C

12.2 C

12.2 C

12.2 C

0 W/m

0.00 mm

18:10

12.2 C

1022.7 hpa

87 %

1.6 km/h aus 106

8.0 km/h aus NE

10.1 C

12.2 C

12.2 C

12.2 C

0 W/m

0.00 mm

18:15

12.1 C

1022.5 hpa

87 %

6.4 km/h aus 105

12.9 km/h aus NNE

10.0 C

11.8 C

11.8 C

12.1 C

0 W/m

0.00 mm

18:20

12.1 C

1022.5 hpa

87 %

3.2 km/h aus 102

9.7 km/h aus NE

10.0 C

12.1 C

12.1 C

12.1 C

0 W/m

0.00 mm

18:25

12.1 C

1022.5 hpa

87 %

3.2 km/h aus 102

8.0 km/h aus NE

10.0 C

12.1 C

12.1 C

12.1 C

0 W/m

0.00 mm

18:30

11.9 C

1022.4 hpa

87 %

6.4 km/h aus 113

11.3 km/h aus NE

9.8 C

11.6 C

11.6 C

11.9 C

0 W/m

0.00 mm

18:35

11.9 C

1022.4 hpa

87 %

3.2 km/h aus 109

14.5 km/h aus NE

9.8 C

11.9 C

11.9 C

11.9 C

0 W/m

0.00 mm

18:40

11.8 C

1022.4 hpa

88 %

1.6 km/h aus 106

9.7 km/h aus NE

9.9 C

11.8 C

11.8 C

11.8 C

0 W/m

0.00 mm

18:45

11.8 C

1022.5 hpa

88 %

3.2 km/h aus 109

9.7 km/h aus NNE

9.9 C

11.8 C

11.8 C

11.8 C

0 W/m

0.00 mm

18:50

11.7 C

1022.5 hpa

88 %

6.4 km/h aus 110

14.5 km/h aus NE

9.8 C

11.3 C

11.3 C

11.7 C

0 W/m

0.00 mm

18:55

11.7 C

1022.5 hpa

88 %

6.4 km/h aus 107

11.3 km/h aus ENE

9.7 C

11.3 C

11.3 C

11.7 C

0 W/m

0.00 mm

19:00

11.7 C

1022.3 hpa

88 %

4.8 km/h aus 103

12.9 km/h aus NE

9.7 C

11.7 C

11.7 C

11.7 C

0 W/m

0.00 mm

19:05

11.6 C

1022.3 hpa

88 %

4.8 km/h aus 111

11.3 km/h aus NE

9.7 C

11.6 C

11.6 C

11.6 C

0 W/m

0.00 mm

19:10

11.6 C

1022.3 hpa

88 %

4.8 km/h aus 104

14.5 km/h aus NE

9.6 C

11.6 C

11.6 C

11.6 C

0 W/m

0.00 mm

19:15

11.5 C

1022.4 hpa

89 %

4.8 km/h aus 105

11.3 km/h aus ENE

9.7 C

11.6 C

11.5 C

11.6 C

0 W/m

0.00 mm

19:20

11.5 C

1022.4 hpa

89 %

1.6 km/h aus 100

4.8 km/h aus NE

9.7 C

11.6 C

11.5 C

11.6 C

0 W/m

0.00 mm

19:25

11.4 C

1022.4 hpa

89 %

3.2 km/h aus 110

8.0 km/h aus NE

9.7 C

11.5 C

11.4 C

11.5 C

0 W/m

0.00 mm

19:30

11.4 C

1022.5 hpa

89 %

3.2 km/h aus 111

6.4 km/h aus NE

9.7 C

11.5 C

11.4 C

11.5 C

0 W/m

0.00 mm

19:35

11.4 C

1022.5 hpa

89 %

1.6 km/h aus 111

8.0 km/h aus ESE

9.6 C

11.4 C

11.4 C

11.4 C

0 W/m

0.00 mm

19:40

11.3 C

1022.5 hpa

89 %

4.8 km/h aus 109

9.7 km/h aus E

9.6 C

11.3 C

11.3 C

11.4 C

0 W/m

0.00 mm

19:45

11.3 C

1022.2 hpa

89 %

3.2 km/h aus 107

9.7 km/h aus E

9.6 C

11.4 C

11.3 C

11.4 C

0 W/m

0.00 mm

19:50

11.3 C

1022.2 hpa

89 %

3.2 km/h aus 102

8.0 km/h aus ENE

9.5 C

11.3 C

11.3 C

11.3 C

0 W/m

0.00 mm

19:55

11.3 C

1022.2 hpa

89 %

3.2 km/h aus 105

8.0 km/h aus E

9.5 C

11.3 C

11.3 C

11.3 C

0 W/m

0.00 mm

20:00

11.2 C

1022.3 hpa

89 %

4.8 km/h aus 109

11.3 km/h aus ENE

9.5 C

11.2 C

11.2 C

11.3 C

0 W/m

0.00 mm

20:05

11.2 C

1022.3 hpa

89 %

3.2 km/h aus 101

9.7 km/h aus E

9.4 C

11.2 C

11.2 C

11.2 C

0 W/m

0.00 mm

20:10

11.2 C

1022.3 hpa

89 %

6.4 km/h aus 109

9.7 km/h aus E

9.4 C

10.8 C

10.7 C

11.2 C

0 W/m

0.00 mm

20:15

11.1 C

1021.8 hpa

89 %

6.4 km/h aus 108

9.7 km/h aus ESE

9.4 C

10.8 C

10.7 C

11.2 C

0 W/m

0.00 mm

20:20

11.1 C

1021.8 hpa

89 %

6.4 km/h aus 113

17.7 km/h aus E

9.3 C

10.7 C

10.6 C

11.2 C

0 W/m

0.00 mm

20:25

11.1 C

1021.8 hpa

89 %

6.4 km/h aus 107

14.5 km/h aus ESE

9.3 C

10.7 C

10.6 C

11.2 C

0 W/m

0.00 mm

20:30

11.0 C

1022.2 hpa

90 %

4.8 km/h aus 112

11.3 km/h aus ENE

9.4 C

11.1 C

10.9 C

11.1 C

0 W/m

0.00 mm

20:35

11.0 C

1022.2 hpa

90 %

3.2 km/h aus 105

6.4 km/h aus ENE

9.4 C

11.1 C

11.0 C

11.1 C

0 W/m

0.00 mm

20:40

10.9 C

1022.2 hpa

90 %

1.6 km/h aus 112

6.4 km/h aus ENE

9.4 C

11.1 C

10.9 C

11.1 C

0 W/m

0.00 mm

20:45

10.9 C

1022.1 hpa

90 %

4.8 km/h aus 101

8.0 km/h aus ENE

9.4 C

11.0 C

10.9 C

11.1 C

0 W/m

0.00 mm

20:50

10.9 C

1022.1 hpa

90 %

1.6 km/h aus 109

6.4 km/h aus ENE

9.4 C

11.1 C

10.9 C

11.1 C

0 W/m

0.00 mm

20:55

10.9 C

1022.1 hpa

90 %

4.8 km/h aus 104

9.7 km/h aus ENE

9.4 C

11.0 C

10.9 C

11.1 C

0 W/m

0.00 mm

21:00

10.9 C

1022.2 hpa

90 %

6.4 km/h aus 108

16.1 km/h aus NE

9.3 C

10.5 C

10.4 C

11.0 C

0 W/m

0.00 mm

21:05

10.9 C

1022.2 hpa

90 %

3.2 km/h aus 104

9.7 km/h aus NE

9.3 C

11.0 C

10.9 C

11.0 C

0 W/m

0.00 mm

21:10

10.8 C

1022.2 hpa

90 %

1.6 km/h aus 95

8.0 km/h aus NE

9.3 C

10.9 C

10.8 C

10.9 C

0 W/m

0.00 mm

21:15

10.8 C

1022.3 hpa

90 %

1.6 km/h aus 104

4.8 km/h aus NE

9.3 C

10.9 C

10.8 C

10.9 C

0 W/m

0.00 mm

21:20

10.8 C

1022.3 hpa

90 %

1.6 km/h aus 98

4.8 km/h aus NE

9.3 C

10.9 C

10.8 C

10.9 C

0 W/m

0.00 mm

21:25

10.8 C

1022.3 hpa

90 %

1.6 km/h aus 93

6.4 km/h aus NE

9.3 C

10.9 C

10.8 C

10.9 C

0 W/m

0.00 mm

21:30

10.8 C

1022.2 hpa

90 %

3.2 km/h aus 107

8.0 km/h aus NE

9.3 C

10.9 C

10.8 C

10.9 C

0 W/m

0.00 mm

21:35

10.8 C

1022.2 hpa

90 %

3.2 km/h aus 108

6.4 km/h aus NE

9.3 C

10.9 C

10.8 C

10.9 C

0 W/m

0.00 mm

21:40

10.8 C

1022.2 hpa

90 %

4.8 km/h aus 108

8.0 km/h aus NE

9.3 C

10.9 C

10.8 C

10.9 C

0 W/m

0.00 mm

21:45

10.8 C

1022.2 hpa

90 %

3.2 km/h aus 112

8.0 km/h aus NE

9.2 C

10.9 C

10.8 C

10.9 C

0 W/m

0.00 mm

21:50

10.8 C

1022.2 hpa

90 %

3.2 km/h aus 107

9.7 km/h aus NE

9.2 C

10.9 C

10.8 C

10.9 C

0 W/m

0.00 mm

21:55

10.8 C

1022.2 hpa

90 %

1.6 km/h aus 108

8.0 km/h aus NE

9.2 C

10.9 C

10.8 C

10.9 C

0 W/m

0.00 mm

22:00

10.8 C

1022.0 hpa

90 %

3.2 km/h aus 110

8.0 km/h aus NE

9.2 C

10.9 C

10.8 C

10.9 C

0 W/m

0.00 mm

22:05

10.7 C

1022.0 hpa

90 %

1.6 km/h aus 103

6.4 km/h aus NE

9.1 C

10.8 C

10.7 C

10.8 C

0 W/m

0.00 mm

22:10

10.7 C

1022.0 hpa

90 %

3.2 km/h aus 107

8.0 km/h aus NE

9.1 C

10.8 C

10.7 C

10.8 C

0 W/m

0.00 mm

22:15

10.7 C

1022.0 hpa

90 %

3.2 km/h aus 113

6.4 km/h aus NE

9.1 C

10.8 C

10.7 C

10.8 C

0 W/m

0.00 mm

22:20

10.7 C

1022.0 hpa

90 %

3.2 km/h aus 109

6.4 km/h aus NE

9.1 C

10.8 C

10.7 C

10.8 C

0 W/m

0.00 mm

22:25

10.7 C

1022.0 hpa

90 %

1.6 km/h aus 109

6.4 km/h aus NE

9.1 C

10.8 C

10.7 C

10.8 C

0 W/m

0.00 mm

22:30

10.7 C

1022.1 hpa

91 %

1.6 km/h aus 109

6.4 km/h aus NE

9.3 C

10.8 C

10.7 C

10.8 C

0 W/m

0.00 mm

22:35

10.7 C

1022.1 hpa

91 %

1.6 km/h aus 103

6.4 km/h aus NE

9.3 C

10.8 C

10.7 C

10.8 C

0 W/m

0.00 mm

22:40

10.7 C

1022.1 hpa

91 %

1.6 km/h aus 103

6.4 km/h aus NE

9.3 C

10.8 C

10.7 C

10.8 C

0 W/m

0.00 mm

22:45

10.7 C

1022.2 hpa

91 %

1.6 km/h aus 106

8.0 km/h aus NE

9.3 C

10.8 C

10.7 C

10.8 C

0 W/m

0.00 mm

22:50

10.7 C

1022.2 hpa

91 %

1.6 km/h aus 102

4.8 km/h aus NE

9.3 C

10.8 C

10.7 C

10.8 C

0 W/m

0.00 mm

22:55

10.7 C

1022.2 hpa

91 %

3.2 km/h aus 103

11.3 km/h aus NE

9.3 C

10.8 C

10.7 C

10.8 C

0 W/m

0.00 mm

23:00

10.6 C

1022.3 hpa

91 %

1.6 km/h aus 113

6.4 km/h aus NE

9.2 C

10.7 C

10.6 C

10.7 C

0 W/m

0.00 mm

23:05

10.6 C

1022.3 hpa

91 %

0.0 km/h aus 110

3.2 km/h aus NE

9.2 C

10.7 C

10.6 C

10.7 C

0 W/m

0.00 mm

23:10

10.6 C

1022.3 hpa

91 %

0.0 km/h aus 113

4.8 km/h aus NE

9.2 C

10.7 C

10.6 C

10.7 C

0 W/m

0.00 mm

23:15

10.6 C

1022.2 hpa

91 %

3.2 km/h aus 108

8.0 km/h aus NE

9.2 C

10.7 C

10.6 C

10.7 C

0 W/m

0.00 mm

23:20

10.6 C

1022.2 hpa

91 %

1.6 km/h aus 109

4.8 km/h aus NE

9.1 C

10.7 C

10.6 C

10.7 C

0 W/m

0.00 mm

23:25

10.6 C

1022.2 hpa

91 %

0.0 km/h aus 104

4.8 km/h aus NE

9.1 C

10.7 C

10.6 C

10.7 C

0 W/m

0.00 mm

23:30

10.6 C

1022.2 hpa

91 %

3.2 km/h aus 111

8.0 km/h aus NE

9.1 C

10.7 C

10.6 C

10.7 C

0 W/m

0.00 mm

23:35

10.6 C

1022.2 hpa

91 %

1.6 km/h aus 106

6.4 km/h aus NE

9.1 C

10.7 C

10.6 C

10.7 C

0 W/m

0.00 mm

23:40

10.6 C

1022.2 hpa

90 %

3.2 km/h aus 106

9.7 km/h aus NE

9.0 C

10.7 C

10.6 C

10.7 C

0 W/m

0.00 mm

23:45

10.6 C

1021.9 hpa

90 %

3.2 km/h aus 106

8.0 km/h aus NE

9.0 C

10.7 C

10.6 C

10.7 C

0 W/m

0.00 mm

23:50

10.6 C

1021.9 hpa

91 %

1.6 km/h aus 108

4.8 km/h aus NE

9.1 C

10.7 C

10.6 C

10.7 C

0 W/m

0.00 mm

23:55

10.6 C

1021.9 hpa

91 %

1.6 km/h aus 102

4.8 km/h aus NE

9.1 C

10.7 C

10.6 C

10.7 C

0 W/m

0.00 mm